Regional Weather Roundup
Issued by NWS

Home | Current Version | Previous Version | Text Only | Print | Product List | Glossary On
Versions: 1 2 3 4 5 6 7 8 9 10 11 12 13 14 15 16 17 18 19 20 21 22 23 24 25 26 27
000
ASUS42 KTBW 111316
RWRFL
FLORIDA REGIONAL WEATHER ROUNDUP
NATIONAL WEATHER SERVICE TAMPA BAY RUSKIN FL
800 AM EST MON DEC 11 2017

NOTE: "FAIR" INDICATES FEW OR NO CLOUDS BELOW 12,000 FEET WITH NO
SIGNIFICANT WEATHER AND/OR OBSTRUCTIONS TO VISIBILITY.

FLZ001>010-012>015-112-114-115-111400-
PANHANDLE FLORIDA

CITY           SKY/WX    TMP DP  RH WIND       PRES   REMARKS
PENSACOLA      CLEAR     40  37  89 W5        30.30R WCI  37
PENSACOLA NAS  CLEAR     33  31  92 NW5       30.30S WCI  29
MILTON NAS     CLEAR     32  31  96 CALM      30.30
CRESTVIEW      CLEAR     26  24  92 CALM      30.31R
DUKE FIELD     FAIR      29  27  92 S3        30.29R
VALPARAISO     CLEAR     35  34  93 NW6       30.30R WCI  30
MARY ESTHER    CLEAR     35  33  96 NW3       30.29R
PANAMA CITY    FAIR      31  29  92 CALM      30.30R
TYNDALL AFB    CLEAR     32  31  95 CALM      30.31S
APALACHICOLA   CLEAR     33  32  96 CALM      30.31R

STATION/POSITION SKY/WX   TEMP    WIND        PRES    WAVE   SWELL
                          AIR SEA DIR/SP/G            HT/PER HT/PER
                          (F)     (DEG/KT/KT) (MB)    (FT/S) (FT/S)
29.2N   88.2W              60 74  310/ 10/ 14 1026.9R   2/ 4   2/ 8
28.8N   86.0W              62 74  320/  8/ 12 1025.9R   2/ 5   2/ 5
PANAMA CITY BEAC           44 60  340/  3/  4 1026.5R
TOWER C                    53     360/ 11/ 13 1027.0R

$$
FLZ011-016>038-118-127-128-134-139-239-111400-
NORTH FLORIDA

CITY           SKY/WX    TMP DP  RH WIND       PRES   REMARKS
MARIANNA       PTCLDY    29  27  92 CALM      30.29R
TALLAHASSEE    CLEAR     28  27  96 CALM      30.31R
PERRY          CLEAR     29  28  96 CALM      30.32R
LIVE OAK       CLEAR     28  28 100 CALM      30.31S
CROSS CITY     CLEAR     29  28  96 CALM      30.37S
LAKE CITY      FAIR      30  30 100 CALM      30.30S
GAINESVILLE    CLEAR     32  31  96 CALM      30.33S
WILLISTON        N/A     32  32 100 CALM      30.32S
PALATKA        FAIR      32  32 100 W5        30.31S WCI  27
MAYPORT NAS    CLEAR     42  34  73 W6        30.29S WCI  38
JACKSONVILLE   CLEAR     34  30  85 W6        30.28S WCI  29
JAX NAS        CLEAR     38  31  76 CALM      30.30S
JAX CECIL      CLEAR     30  30 100 VRB5      30.30R WCI  25
ST AUGUSTINE   CLEAR     39  32  76 MISG      30.30S
PALM COAST     CLEAR     37  36  93 CALM      30.30S

STATION/POSITION SKY/WX   TEMP    WIND        PRES    WAVE   SWELL
                          AIR SEA DIR/SP/G            HT/PER HT/PER
                          (F)     (DEG/KT/KT) (MB)    (FT/S) (FT/S)
SHELL POINT      NOT AVBL
KEATON BEACH               39      50/  1/  1 1026.1R
CEDAR KEY                  43     360/  3/  3 1026.5R
FERNANDINA                 38 57  250/  3/  5 1026.4R
30.7N   81.3W                 59                N/A     1/11
MAYPORT                    43 60  290/  4/  5 1025.8S
31.4N   80.9W              48 60  280/ 14/ 16 1024.5R   2/ 3   2/ 9
ST AUGUSTINE               43 60  300/  5/  7 1025.9S

$$
FLZ040-043>046-052-053-057-058-063-144-111400-
INTERIOR CENTRAL FLORIDA

CITY           SKY/WX    TMP DP  RH WIND       PRES   REMARKS
OCALA          CLEAR     29  28  96 CALM      30.32R
LEESBURG       CLEAR     44  38  79 N3        30.32R
SANFORD        CLEAR     39  36  89 NW5       30.30R WCI  36
ORLANDO EXEC   CLEAR     45  37  73 NW5       30.30R WCI  43
ORLANDO INTL   PTCLDY    41  39  93 N3        30.31R
KISSIMMEE      CLEAR     40  38  93 CALM      30.32R
WINTER HAVEN   CLEAR     45  40  82 N7        30.31S WCI  41
LAKELAND       CLEAR     37  36  93 CALM      30.31S
BARTOW         CLEAR     34  34 100 CALM      30.31R
SEBRING        FAIR      42  37  84 CALM      30.30S

$$
FLZ041-047-054-059-064-141-147-111400-
EAST CENTRAL FLORIDA

CITY           SKY/WX    TMP DP  RH WIND       PRES   REMARKS
ORMOND BEACH   CLEAR     36  36 100 CALM      30.31R
DAYTONA BEACH  CLEAR     41  38  89 CALM      30.30R
DELAND         CLEAR     36  36 100 NW3       30.30R
NEW SMYRNA BEA CLEAR     39  36  87 W6        30.31R WCI  35
JFK SPACE CTR  CLEAR     41  41  99 NW3       30.28R
TITUSVILLE     CLEAR     37  36  93 NW6       30.30R WCI  33
CAPE CANAVERAL CLEAR     48  36  63 NW10      30.27S WCI  43
PATRICK AFB    CLEAR     50  38  62 NW10      30.28S
MELBOURNE      CLEAR     43  39  86 NW5       30.28F WCI  40
VERO BEACH     SUNNY     43  40  89 W5        30.29S WCI  40
FT PIERCE      SUNNY     41  41 100 W5        30.29S WCI  38
STUART         SUNNY     48  39  71 NW7       30.30S

STATION/POSITION SKY/WX   TEMP    WIND        PRES    WAVE   SWELL
                          AIR SEA DIR/SP/G            HT/PER HT/PER
                          (F)     (DEG/KT/KT) (MB)    (FT/S) (FT/S)
28.5N   80.2W              58 78  320/ 10/ 16 1024.9R   3/ 7   2/ 7
TRIDENT PIER                      310/  8/ 10   N/A
28.4N   80.5W                 69                N/A     2/ 8
27.5N   80.2W                 71                N/A     3/ 7

$$
FLZ050-056-061-142-242-148-248-149-249-151-251-155-255-
160-260-111400-
WEST CENTRAL FLORIDA

CITY           SKY/WX    TMP DP  RH WIND       PRES   REMARKS
CRYSTAL RIVER  FAIR      32  32 100 CALM      30.32S
INVERNESS      FAIR      32  32 100 CALM      30.33R
BROOKSVILLE    CLEAR     32  31  96 CALM      30.32S
CLEARWATER AIR FAIR      45  32  61 E3        30.31R
ST PETE CLEARW CLEAR     49  36  61 NE8       30.32R
TAMPA INTL     PTCLDY    46  36  68 NE3       30.32R
TAMPA EXEC     PTCLDY    36  36 100 CALM      30.33R
PLANT CITY     PTCLDY    41  37  87 CALM      30.33S
MACDILL AFB    CLEAR     44  37  76 NE3       30.31R
PETER O KNIGHT   N/A     45  37  76 NE7       30.32R WCI  41
ST PETERSBURG  CLEAR     51  40  65 NE13      30.30R
SARASOTA       CLEAR     45  38  76 NE7       30.29R WCI  41
VENICE         FAIR     N/A N/A N/A NE8       30.31R

STATION/POSITION SKY/WX   TEMP    WIND        PRES    WAVE   SWELL
                          AIR SEA DIR/SP/G            HT/PER HT/PER
                          (F)     (DEG/KT/KT) (MB)    (FT/S) (FT/S)
27.3N   84.2W                 75                N/A     3/ 5
CLEARWATER BEACH           48 63   40/ 10/ 13 1026.4R
MIDDLE TAMPA BAY           49      70/ 11/ 12 1026.2R
VENICE                     48 68   50/  9/ 11 1026.1R

$$
FLZ066-069-070-075>078-162-262-165-265-111400-
SOUTHWEST FLORIDA AND KEYS

CITY           SKY/WX    TMP DP  RH WIND       PRES   REMARKS
PUNTA GORDA    CLEAR     43  38  82 E3        30.32R
FT MYERS       CLEAR     45  40  82 NE5       30.30R WCI  43
SOUTHWEST INTL CLEAR     45  38  76 NE7       30.30S WCI  41
NAPLES         SUNNY     47  40  76 NE6       30.29S WCI  44
MARCO ISLAND   SUNNY     47  38  71 N8        30.30S WCI  43
IMMOKALEE      FAIR      43  39  87 N5        30.31R WCI  40
MARATHON       SUNNY     57  41  55 N14G21    30.27R
KEY WEST NAS   MOSUNNY   61  40  45 N20       30.27R
KEY WEST INTL  SUNNY     61  38  42 N14G23    30.27R

STATION/POSITION SKY/WX   TEMP    WIND        PRES    WAVE   SWELL
                          AIR SEA DIR/SP/G            HT/PER HT/PER
                          (F)     (DEG/KT/KT) (MB)    (FT/S) (FT/S)
NAPLES                        67   50/  5/  7 1025.5R
DRY TORTUGAS               66      10/ 15/ 17 1024.6S
SAND KEY                   61                 1025.1R
MOLASSES REEF              55 74  360/ 19/ 21 1024.5R

$$
FLZ067-068-071>074-168-172>174-111400-
SOUTHEAST FLORIDA

CITY           SKY/WX    TMP DP  RH WIND       PRES   REMARKS
W PALM BEACH   SUNNY     48  38  68 NW6       30.28S
BOCA RATON     SUNNY    N/A N/A N/A N9        30.28R
FT LAUDER-EXEC SUNNY     50  37  61 N9        30.27S
FT LAUDERDALE  MOSUNNY   51  39  63 N8        30.26S
POMPANO BEACH  SUNNY     51  35  54 N12       30.28R
PEMBROKE PINES SUNNY     52  42  69 N8        30.29R
OPA LOCKA      SUNNY     51  42  71 N9        30.27S
MIAMI          SUNNY     53  41  63 NW7       30.27R
WEST KENDALL   SUNNY     52  42  69 N9        30.27R
HOMESTEAD      SUNNY     51  42  69 N10       30.25S

STATION/POSITION SKY/WX   TEMP    WIND        PRES    WAVE   SWELL
                          AIR SEA DIR/SP/G            HT/PER HT/PER
                          (F)     (DEG/KT/KT) (MB)    (FT/S) (FT/S)
PORT EVERGLADES            52     320/ 11/ 17 1024.6R
VIRGINIA KEY               54 72  320/  9/ 16 1024.2R
LAKE WORTH                 50 74  320/ 10/ 14 1026.3R
FOWEY ROCKS                56 74  340/ 21/ 23 1024.9S
SETTLEMENT POINT           65      10/ 11/ 13 1024.0R

$$





USA.gov is the U.S. government's official web portal to all federal, state and local government web resources and services.